Simultaneous Nadir Overpasses (SNOs) Predictions

Prediction of SNOs between AQUA and GOES-15 Satellite Orbit:

Table of predicted SNOs for the next 14.0 days since TLE Epoch: 4/10/2015
Index Date Time (AQUA) AQUA Lat,Lon GOES-15 Lat,Lon Distance(km) Time Diff (sec)
1 04/10/2015 22:36:03 -0.01,-134.89 -0.04,-134.92 5.42 80
2 04/12/2015 22:23:53 0.58,-131.93 -0.05,-134.98 346.51 80
3 04/13/2015 10:45:09 0.50,-137.09 0.05,-135.04 233.63 80
4 04/15/2015 10:33:00 -0.18,-134.15 0.05,-135.10 107.99 80
5 04/15/2015 22:54:24 -0.97,-139.34 -0.05,-135.07 485.85 80
6 04/17/2015 10:20:50 -0.81,-131.20 0.05,-135.15 449.19 80
7 04/17/2015 22:42:14 -0.33,-136.39 -0.05,-135.12 144.65 80
8 04/19/2015 22:30:04 0.34,-133.45 -0.05,-135.17 196.20 80
9 04/20/2015 10:51:19 0.79,-138.60 0.05,-135.22 383.99 80
10 04/22/2015 10:39:08 0.15,-135.64 0.05,-135.26 43.69 80




NCC Satellite Simultaneous Nadir Overpasses (SNOs) Prediction Service
